Lexington Weather

Lexington, Massachusetts, USA

29°F
4/1/2020 5:15am 
  • Lexington Conditions: Clear
  • Temperature: 29.3°F / -1.5°CWarmer 0.2°F than last hour.
  • Dew Point: 27.5°FIncreased 0.4°Fsince last hour.
  • Relative Humidity: 93%Increased 1.0% since last hour.
  • Wind: Wind from NNE NNE 2 mph, 10-min avg: 2 mph, gust: 3 mph
  • Barometer: 29.85 inFalling 0.02  inHg/hr Falling Slowly
  • Visibility: 10 miles
  • Snow Today: 0.0 in
  •   

Regional Weather Roundup
for Boston / Norton, MA

        
000
ASUS41 KBOX 300304
RWRBOX

REGIONAL WEATHER ROUNDUP
NATIONAL WEATHER SERVICE BOSTON/NORTON MA
1100 PM EDT SUN MAR 29 2020

NOTE:  "FAIR" INDICATES FEW OR NO CLOUDS BELOW 12,000 FEET WITH NO 
SIGNIFICANT WEATHER AND/OR OBSTRUCTIONS TO VISIBILITY.

MAZALL-300400-
EASTERN MASSACHUSETTS
  
CITY           SKY/WX    TMP DP  RH WIND       PRES   REMARKS
BOSTON         CLOUDY    40  38  93 N18G26    30.01R WCI  31          
BEVERLY        CLOUDY    40  37  89 NE10G26   30.02R                  
LAWRENCE       LGT RAIN  39  37  92 NE14G23   30.00F FOG     WCI  31  
BEDFORD        LGT RAIN  40  38  93 N12       30.01R FOG              
BLUE HILL        N/A     38  38 100 NE16G29   29.95R WCI  29          
NORWOOD        LGT RAIN  42  38  85 N12G21    29.99R FOG              
MARSHFIELD     RAIN      43  43 100 NE16G22   29.93F                  
PLYMOUTH       LGT RAIN  41  40  96 NE16        N/A                   
TAUNTON        CLOUDY    41  40  96 VRB5      29.91S                  
NEW BEDFORD    CLOUDY    42  42 100 N7        29.89S FOG              
$$

MAZALL-300400-
CAPE COD AND THE ISLANDS
  
CITY           SKY/WX    TMP DP  RH WIND       PRES   REMARKS
FALMOUTH       LGT RAIN  45  45 100 NE9       29.88R                  
HYANNIS        LGT RAIN  47  44  90 VRB3      29.88R FOG              
CHATHAM        CLOUDY    45  43  93 SE10G24   29.84F FOG              
PROVINCETOWN   TSTM      42  41  96 NE20G25   29.90R FOG              
NANTUCKET      CLOUDY    46  45  96 E20G25    29.81F FOG              
MARTHAS VNYRD  CLOUDY    47  45  93 E6        29.85S FOG              
$$
 
MAZALL-300400-
CENTRAL AND WESTERN MASSACHUSETTS
  
CITY           SKY/WX    TMP DP  RH WIND       PRES   REMARKS
WORCESTER      RAIN      36  34  92 NE14G22   29.95F FOG     WCI  27  
FITCHBURG      CLOUDY    38  35  89 N7        30.02R FOG              
ORANGE         CLOUDY    39  35  86 N8        29.99F                  
SPRINGFIELD    CLOUDY    40  39  99 NE10      29.95F                  
WESTFIELD      CLOUDY    40  37  89 N13G21    29.96F                  
NORTH ADAMS    CLOUDY    40  34  79 E15       29.96R WCI  32          
PITTSFIELD     CLOUDY    38  34  85 E8        29.93R                  
$$
 
RIZALL-300400-
RHODE ISLAND
  
CITY           SKY/WX    TMP DP  RH WIND       PRES   REMARKS
PROVIDENCE     DRIZZLE   42  41  96 N16       29.95R FOG              
NEWPORT        LGT RAIN  44  41  89 NE12      29.87F FOG              
BLOCK ISLAND   LGT RAIN  43  43 100 NE10G18   29.84F FOG              
SMITHFIELD     LGT RAIN  39  39 100 N14       29.96R FOG     WCI  31  
WESTERLY       CLOUDY    46  41  82 N13       29.90R HAZE             
$$
 
CTZALL-300400-
CONNECTICUT
  
CITY           SKY/WX    TMP DP  RH WIND       PRES   REMARKS
BRADLEY INTL   CLOUDY    40  38  93 N13       29.95S                  
HARTFORD       CLOUDY    42  39  89 N13       29.94R                  
BRIDGEPORT     CLOUDY    47  45  93 NE9       29.88F                  
DANBURY        CLOUDY    44  43  96 NE8       29.90S                  
GROTON         LGT RAIN  42  42 100 N17G23    29.88S FOG              
NEW HAVEN      CLOUDY    46  45  96 N12       29.89F                  
CHESTER        CLOUDY    43  43 100 NE12      29.89F FOG              
MERIDEN        CLOUDY    43  40  89 N8        29.92S FOG              
WILLIMANTIC    CLOUDY    41  39  93 NE10      29.92R FOG              
OXFORD         CLOUDY    42  41  96 NE9G18    29.89F                  
$$

MEZ002-015-021-024-NHZ003-005-008-011-012-014-VTZ005-008-300400-
NORTHERN NEW ENGLAND
  
CITY           SKY/WX    TMP DP  RH WIND       PRES   REMARKS
PORTLAND ME    LGT RAIN  38  34  85 E8G17     30.10F                  
BANGOR ME      LGT RAIN  34  32  92 NE6       30.17F WCI  29          
CONCORD NH     CLOUDY    35  33  92 N8        30.04F WCI  29          
MANCHESTER NH  LGT RAIN  39  36  89 NE6       30.02R                  
NASHUA NH      LGT RAIN  38  38 100 VRB7      30.04R                  
PORTSMOUTH NH  LGT RAIN  39  37  91 NW14G24   30.11R WCI  31          
JAFFREY NH     CLOUDY    36  35  96 MISG      29.98F                  
KEENE NH       CLOUDY    38  34  85 NE8       30.00F                  
BURLINGTON VT  MOCLDY    41  34  76 VRB7      29.91S                  
MT. WASHINGTON FOG       21  21 100 SE35G45     N/A  VSB 0   WCI   2  
$$

NYZ052-076-300400-
EASTERN NEW YORK
  
CITY           SKY/WX    TMP DP  RH WIND       PRES   REMARKS
ALBANY         CLOUDY    46  38  73 SE6       29.93R                  
NEW YORK CITY  DRIZZLE   46  44  93 NE14      29.87F FOG              
$$
 
ANZALL-300400-
MARINE OBSERVATIONS
  
STATION/POSITION TIME  TEMP    WIND        PRES    VSBY  WAVE
                       AIR SEA DIR/SP/G                  HT/PER
                 (UTC) (F)     (DEG/KT/KT) (MB)    (MI)  (FT/S)
BOSTON BUOY      0250   41 43   60/ 21/ 25 1013.3F         6/ 6
BUZZARDS BAY     0200           70/ 12/ 14 1012.0F
NANTUCKET SOUND  0240                        N/A           4/ 5
MASS BAY-STELLWA 0204   40 42   70/ 17/ 21 1014.0R  1 1/8  7/ 6
ISLE OF SHOALS   0200   40      60/ 27/ 29 1015.3F
S OF BLOCK IS    0230      44                N/A           8/ 9
$$

......................KEY.........................
  SKY/WX - SKY CONDITION/PRESENT WEATHER
  TMP    - TEMPERATURE IN FAHRENHEIT
  DWPT   - DEWPOINT IN FAHRENHEIT
  RH     - RELATIVE HUMIDITY IN PERCENT
  WIND   - DIRECTION AND SPEED IN MPH
  PRES   - MEAN SEA LEVEL PRESSURE IN INCHES OF HG
  WCI    - WIND CHILL INDEX
  VSB    - VISIBILITY IN MILES
  HX     - HEAT INDEX
  TC     - TEMPERATURE IN CELSIUS
  VRB    - VARIABLE WIND DIRECTION
  N/A    - NOT AVAILABLE
  
      

Other recent Regional Weather Roundups

Wed Apr 1, 5:04am

Wed Apr 1, 4:05am

Wed Apr 1, 3:04am

Wed Apr 1, 2:04am

Wed Apr 1, 1:04am

Wed Apr 1, 12:04am

Tue Mar 31, 11:04pm

Tue Mar 31, 10:04pm

Tue Mar 31, 9:04pm

Tue Mar 31, 8:04pm

Tue Mar 31, 7:04pm

Tue Mar 31, 6:04pm

Tue Mar 31, 4:04pm

Tue Mar 31, 3:04pm

Tue Mar 31, 2:04pm

Tue Mar 31, 1:04pm

Tue Mar 31, 12:05pm

Tue Mar 31, 11:04am

Tue Mar 31, 10:05am

Tue Mar 31, 9:04am

Tue Mar 31, 8:04am

Tue Mar 31, 7:05am

Tue Mar 31, 6:04am

Tue Mar 31, 5:04am

Tue Mar 31, 4:04am

Tue Mar 31, 3:04am

Tue Mar 31, 2:04am

Tue Mar 31, 1:04am

Tue Mar 31, 12:04am

Mon Mar 30, 11:04pm

Mon Mar 30, 10:04pm

Mon Mar 30, 9:05pm

Mon Mar 30, 8:04pm

Mon Mar 30, 7:04pm

Mon Mar 30, 6:04pm

Mon Mar 30, 5:05pm

Mon Mar 30, 4:04pm

Mon Mar 30, 3:04pm

Mon Mar 30, 2:04pm

Mon Mar 30, 1:04pm

Mon Mar 30, 12:04pm

Mon Mar 30, 11:04am

Mon Mar 30, 10:04am

Mon Mar 30, 9:04am

Mon Mar 30, 8:04am

Mon Mar 30, 7:04am

Mon Mar 30, 6:04am

Mon Mar 30, 5:04am

Mon Mar 30, 4:04am

Mon Mar 30, 3:05am

Mon Mar 30, 2:04am

Mon Mar 30, 1:04am

Mon Mar 30, 12:04am

Sun Mar 29, 10:05pm

Sun Mar 29, 9:04pm

Sun Mar 29, 8:04pm

Sun Mar 29, 7:04pm

Sun Mar 29, 6:04pm

Sun Mar 29, 5:05pm

Sun Mar 29, 4:04pm

Sun Mar 29, 3:04pm

Sun Mar 29, 2:04pm

Sun Mar 29, 1:05pm

Sun Mar 29, 12:04pm

Sun Mar 29, 11:04am

Sun Mar 29, 10:04am

Sun Mar 29, 9:04am

Sun Mar 29, 8:04am

Sun Mar 29, 7:04am

Sun Mar 29, 6:04am

Meta data:

ID: f0b2bac0-d818-4523-956d-13492c27579d
Link: https://api.weather.gov/products/f0b2bac0-d818-4523-956d-13492c27579d